RESOURCESAT-2A (41877 NORAD) Tracking and Keplerian Element Data

This shows tracking and keplerian element data for the satellite.

Feedback or suggestion? Click here.




ElementValue
Catalog41877
NameRESOURCESAT-2A
Epoch Orbit12229
Epoch Day106.88646803
Epoch Year2019
RAAN181.0887
Inclination98.6368
Eccentricity0.0001619
Argument of Perigee114.196
Mean Anonmoly245.9384
Mean Motion14.21662468
Decay Rate-1E-07
L11 41877U 16074A 19106.88646803 -.00000010 00000-0 15053-4 0 9995
L22 41877 98.6368 181.0887 0001619 114.1960 245.9384 14.21662468122292

Live tracking and technical data element details for RESOURCESAT-2A (NORAD 41877). RESOURCESAT-2A can be tracked NOW for your location showing map with azimuth and elevation plus other details from your city location.

Track the satellite on the map from your city or location and see movement details for azimuth, elevation, latitude, longitude, range, height, and movement on the map or in text.







IsCatalogInMostPopularTable: catalog: 41877, numindb: 172
Update: records affected: 1



GetName: 41877 RESOURCESAT-2A

Hit Count: updated at: Sat, 20 Apr 2019 00:15:38 GMT